Weather History for Shelton, WA

Change the Weather History Date:

Wednesday, August 15, 2012

  Actual Average Record
Temperature  
Mean Temperature 71 °F -  
Max Temperature 91 °F 76 °F 99 °F (2010)
Min Temperature 51 °F 53 °F 44 °F (1982)
Cooling Degree Days 6    
Growing Degree Days 21 (Base 50)    
Moisture  
Dew Point 55 °F    
Average Humidity 75    
Maximum Humidity 100    
Minimum Humidity 24    
Precipitation  
Precipitation 0.00 in - - ()
Sea Level Pressure  
Sea Level Pressure 29.90 in    
Wind  
Wind Speed 4 mph (West)    
Max Wind Speed 12 mph    
Max Gust Speed -    
Visibility 7 miles    
Events Fog    
Averages and records for this station are not official NWS values.
T = Trace of Precipitation, MM = Missing Value Source: NWS Daily Summary

Daily Weather History Graph

Daily Weather History Graph

Search for Another Location

Airport:

Trip Planner

Search our weather history database for the weather conditions in past years. The results will help you decide how hot, cold, wet, or windy it might be!

Date:

Astronomy

Aug. 15, 2012 Rise Set
Actual Time 6:10 AM PDT 8:22 PM PDT
Civil Twilight 5:36 AM PDT 8:56 PM PDT
Nautical Twilight 4:54 AM PDT 9:37 PM PDT
Astronomical Twilight 4:07 AM PDT 10:24 PM PDT
Moon 4:08 AM PDT (8/15) 7:00 PM PDT (8/15)
Length of Visible Light 15h 19m
Length of Day
14h 12m
Waning Crescent, 4% of the Moon is Illuminated
Aug 15
Waning Crescent
Aug 17
New
Aug 24
First Quarter
Aug 31
Full
Sep 8
Last Quarter

Hourly Weather History & Observations

Time (PDT) Temp. Heat Index Dew Point Humidity Pressure Visibility Wind Dir Wind Speed Gust Speed Precip Events Conditions
12:17 AM 57.2 °F - 55.4 °F 94% 29.91 in 10.0 mi West 4.6 mph - N/A   Scattered Clouds
12:26 AM 57.2 °F - 55.4 °F 94% 29.91 in 10.0 mi Calm Calm - N/A   Mostly Cloudy
12:51 AM 55.4 °F - 55.4 °F 100% 29.91 in 2.0 mi West 5.8 mph - N/A   Overcast
12:53 AM 55.9 °F - 55.9 °F 100% 29.91 in 2.5 mi WSW 6.9 mph - N/A   Overcast
1:11 AM 55.4 °F - 55.4 °F 100% 29.91 in 1.5 mi West 6.9 mph - N/A   Overcast
1:26 AM 55.4 °F - 55.4 °F 100% 29.91 in 2.0 mi WSW 4.6 mph - N/A   Overcast
1:36 AM 55.4 °F - 55.4 °F 100% 29.91 in 1.2 mi West 5.8 mph - N/A   Overcast
1:53 AM 55.0 °F - 55.0 °F 100% 29.92 in 0.8 mi WSW 5.8 mph - N/A   Mist
2:53 AM 55.0 °F - 55.0 °F 100% 29.92 in 0.5 mi WSW 3.5 mph - N/A Fog Fog
3:53 AM 54.0 °F - 54.0 °F 100% 29.92 in 0.8 mi Calm Calm - N/A   Mist
4:53 AM 53.1 °F - 53.1 °F 100% 29.92 in 0.5 mi SW 3.5 mph - N/A Fog Fog
5:53 AM 52.0 °F - 52.0 °F 100% 29.92 in 0.2 mi Calm Calm - N/A Fog Fog
6:44 AM 51.8 °F - 51.8 °F 100% 29.93 in 1.0 mi Calm Calm - N/A   Mist
6:53 AM 52.0 °F - 52.0 °F 100% 29.93 in 1.2 mi Calm Calm - N/A   Mostly Cloudy
6:58 AM 51.8 °F - 51.8 °F 100% 29.93 in 3.0 mi Calm Calm - N/A   Mostly Cloudy
7:05 AM 51.8 °F - 51.8 °F 100% 29.93 in 10.0 mi Calm Calm - N/A   Scattered Clouds
7:53 AM 55.0 °F - 54.0 °F 96% 29.94 in 10.0 mi Calm Calm - N/A   Clear
8:53 AM 63.0 °F - 57.0 °F 81% 29.94 in 10.0 mi Calm Calm - N/A   Clear
9:53 AM 66.9 °F - 57.0 °F 70% 29.94 in 10.0 mi Calm Calm - N/A   Clear
10:53 AM 71.1 °F - 57.0 °F 61% 29.93 in 10.0 mi SSE 4.6 mph - N/A   Clear
11:53 AM 78.1 °F - 57.0 °F 48% 29.92 in 10.0 mi Variable 3.5 mph - N/A   Clear
12:53 PM 82.9 °F 82.6 °F 57.9 °F 42% 29.90 in 10.0 mi East 10.4 mph - N/A   Clear
1:53 PM 87.1 °F 85.9 °F 57.0 °F 36% 29.89 in 10.0 mi East 9.2 mph - N/A   Clear
2:53 PM 90.0 °F 87.9 °F 55.0 °F 30% 29.87 in 10.0 mi Variable 3.5 mph - N/A   Clear
3:53 PM 91.9 °F - 51.1 °F 25% 29.85 in 10.0 mi NE 10.4 mph - N/A   Clear
4:53 PM 91.9 °F - 50.0 °F 24% 29.83 in 10.0 mi North 11.5 mph - N/A   Clear
5:53 PM 90.0 °F - 52.0 °F 27% 29.82 in 10.0 mi North 8.1 mph - N/A   Clear
6:53 PM 87.1 °F 84.9 °F 53.1 °F 31% 29.82 in 10.0 mi NNW 6.9 mph - N/A   Clear
7:53 PM 82.0 °F 81.3 °F 54.0 °F 38% 29.83 in 10.0 mi ESE 3.5 mph - N/A   Clear
8:53 PM 73.9 °F - 55.0 °F 52% 29.85 in 10.0 mi Calm Calm - N/A   Clear
9:53 PM 69.1 °F - 55.9 °F 63% 29.86 in 10.0 mi Calm Calm - N/A   Clear
10:53 PM 64.0 °F - 55.9 °F 75% 29.87 in 10.0 mi Calm Calm - N/A   Clear
11:53 PM 61.0 °F - 55.0 °F 81% 29.88 in 10.0 mi Calm Calm - N/A   Clear